Location: Moscow
(55.7500°N, 37.5830°E)
Time: 09:05:12
(UTC+03:00)

Vanguard 1 Rocket - Pass Details

Date: 09 December 2021
Orbit: 651 x 4224 km, 34.3° (Epoch: 23 January)

Event Time Altitude Azimuth Distance (km) Brightness Sun altitude
Exits shadow 05:49:01 16° 235° (SW) 4,443 10.5 -23.3°
Maximum altitude 05:57:59 29° 192° (SSW) 4,522 10.8 -22.0°
Drops below altitude 10° 06:14:55 10° 144° (SE) 7,111 12.6 -19.7°
Sets 06:22:17 0° 135° (SE) 8,394 13.3 -18.7°
